GW6504 Weather Reports


time (UTC)temp
C
wind
direction
speed
KPH
gust
KPH
rain 1hr
cm
rain 24hr
cm
rain mn
cm
humidity
%
barometer
mb
20260507114003 15 36 3.2 4.8 0.00 0.00 0.00 18 1017.0
20260507113503 16 36 3.2 4.8 0.00 0.00 0.00 17 1017.0
20260507113216 15 37 3.2 6.4 0.00 0.00 0.00 18 1017.0
20260507112503 15 4 6.4 11.3 0.00 0.00 0.00 18 1017.0
20260507112003 15 360 6.4 11.3 0.00 0.00 0.00 19 1016.9
20260507111504 15 15 4.8 9.7 0.00 0.00 0.00 17 1017.0
20260507111003 15 68 3.2 6.4 0.00 0.00 0.00 18 1016.9
20260507110503 14 55 4.8 9.7 0.00 0.00 0.00 18 1017.0
20260507110004 15 29 4.8 11.3 0.00 0.00 0.00 19 1016.9
20260507105503 15 21 4.8 11.3 0.00 0.00 0.00 18 1017.1
20260507105003 15 4 3.2 6.4 0.00 0.00 0.00 18 1017.1
20260507104504 15 356 3.2 6.4 0.00 0.00 0.00 18 1017.0
20260507104003 16 4 4.8 8.0 0.00 0.00 0.00 18 1017.0
20260507103504 15 14 6.4 8.0 0.00 0.00 0.00 18 1017.1
20260507103003 16 16 4.8 8.0 0.00 0.00 0.00 18 1017.0
20260507102503 16 17 3.2 8.0 0.00 0.00 0.00 16 1017.2
20260507102003 16 349 3.2 8.0 0.00 0.00 0.00 18 1017.1
20260507101716 16 26 3.2 8.0 0.00 0.00 0.00 18 1017.1
20260507101213 16 10 4.8 8.0 0.00 0.00 0.00 18 1017.0
20260507100503 16 24 3.2 6.4 0.00 0.00 0.00 18 1017.0
20260507100004 16 63 1.6 6.4 0.00 0.00 0.00 17 1016.9
20260507095503 17 125 1.6 6.4 0.00 0.00 0.00 16 1016.9
20260507095003 17 174 1.6 4.8 0.00 0.00 0.00 16 1016.9
20260507094713 16 152 1.6 4.8 0.00 0.00 0.00 17 1016.9
20260507094003 16 119 3.2 4.8 0.00 0.00 0.00 17 1016.9
20260507093714 15 124 1.6 3.2 0.00 0.00 0.00 18 1016.9
20260507093003 15 120 3.2 6.4 0.00 0.00 0.00 18 1016.9
20260507092503 15 92 3.2 6.4 0.00 0.00 0.00 18 1016.8
20260507092003 15 99 3.2 6.4 0.00 0.00 0.00 18 1016.9
20260507091503 16 51 3.2 11.3 0.00 0.00 0.00 17 1016.8
20260507091214 16 7 3.2 11.3 0.00 0.00 0.00 16 1016.9
20260507090717 16 6 3.2 11.3 0.00 0.00 0.00 17 1016.8
20260507090004 16 44 1.6 4.8 0.00 0.00 0.00 17 1016.8
20260507085503 15 38 1.6 4.8 0.00 0.00 0.00 17 1017.0
20260507085003 15 94 1.6 4.8 0.00 0.00 0.00 18 1017.0
20260507084503 15 126 4.8 6.4 0.00 0.00 0.00 19 1016.9
20260507084003 15 138 4.8 6.4 0.00 0.00 0.00 19 1017.1
20260507083503 15 121 3.2 6.4 0.00 0.00 0.00 18 1017.0
20260507083003 16 44 1.6 6.4 0.00 0.00 0.00 17 1017.0
20260507082505 15 63 3.2 6.4 0.00 0.00 0.00 18 1017.0
20260507082003 15 104 4.8 6.4 0.00 0.00 0.00 18 1017.1
20260507081504 15 127 4.8 6.4 0.00 0.00 0.00 19 1017.0
20260507081215 15 125 4.8 9.7 0.00 0.00 0.00 19 1017.1
20260507080503 14 130 4.8 9.7 0.00 0.00 0.00 19 1017.0
20260507080004 15 131 3.2 6.4 0.00 0.00 0.00 19 1017.0
20260507075503 15 136 4.8 6.4 0.00 0.00 0.00 19 1017.2
20260507075004 15 143 4.8 6.4 0.00 0.00 0.00 19 1017.3
20260507074503 15 126 3.2 4.8 0.00 0.00 0.00 19 1017.2
20260507074003 15 119 3.2 6.4 0.00 0.00 0.00 19 1017.2
20260507073503 14 132 4.8 6.4 0.00 0.00 0.00 20 1017.0
20260507073004 14 138 3.2 6.4 0.00 0.00 0.00 20 1017.3
20260507072503 15 142 3.2 4.8 0.00 0.00 0.00 21 1017.0
20260507072214 14 140 3.2 6.4 0.00 0.00 0.00 21 1017.2
20260507071504 13 143 4.8 6.4 0.00 0.00 0.00 21 1017.1
20260507071003 13 125 4.8 6.4 0.00 0.00 0.00 22 1017.2
20260507070504 13 117 6.4 12.9 0.00 0.00 0.00 22 1017.1
20260507070008 12 122 6.4 12.9 0.00 0.00 0.00 19 1017.2
20260507065504 12 132 6.4 8.0 0.00 0.00 0.00 19 1017.1
20260507065003 13 130 4.8 8.0 0.00 0.00 0.00 22 1017.2
20260507064503 13 99 3.2 4.8 0.00 0.00 0.00 22 1017.1
20260507064003 13 94 3.2 4.8 0.00 0.00 0.00 22 1017.1
20260507063503 12 101 3.2 4.8 0.00 0.00 0.00 20 1017.2
20260507063003 12 123 1.6 4.8 0.00 0.00 0.00 23 1017.2
20260507062504 12 125 1.6 6.4 0.00 0.00 0.00 23 1017.0
20260507062003 12 113 3.2 6.4 0.00 0.00 0.00 21 1017.2
20260507061503 12 103 1.6 4.8 0.00 0.00 0.00 21 1017.1
20260507061003 13 97 1.6 3.2 0.00 0.00 0.00 26 1017.1
20260507060714 13 105 1.6 3.2 0.00 0.00 0.00 25 1017.2
20260507060004 12 132 1.6 4.8 0.00 0.00 0.00 28 1017.1
20260507055503 11 122 1.6 4.8 0.00 0.00 0.00 29 1016.9
20260507055003 12 108 1.6 3.2 0.00 0.00 0.00 29 1017.0
20260507054716 11 112 1.6 3.2 0.00 0.00 0.00 31 1017.1
20260507054003 10 66 1.6 4.8 0.00 0.00 0.00 31 1017.1
20260507053503 10 67 0.0 3.2 0.00 0.00 0.00 36 1017.0
20260507053004 8 105 0.0 1.6 0.00 0.00 0.00 44 1016.9
20260507052713 8 105 0.0 1.6 0.00 0.00 0.00 43 1017.1
20260507052003 7 319 0.0 3.2 0.00 0.00 0.00 52 1017.0
20260507051503 6 326 0.0 3.2 0.00 0.00 0.00 50 1016.9
20260507051004 5 338 0.0 3.2 0.00 0.00 0.00 56 1016.8
20260507050715 4 0 0.0 0.0 0.00 0.00 0.00 58 1017.0
20260507050218 3 0 0.0 0.0 0.00 0.00 0.00 61 1016.9
20260507045503 3 0 0.0 0.0 0.00 0.00 0.00 63 1016.8
20260507045213 2 0 0.0 0.0 0.00 0.00 0.00 60 1016.9
20260507044503 2 0 0.0 0.0 0.00 0.00 0.00 62 1017.0
20260507044003 2 0 0.0 0.0 0.00 0.00 0.00 67 1017.1
20260507043503 1 0 0.0 0.0 0.00 0.00 0.00 72 1017.0
20260507043003 1 0 0.0 0.0 0.00 0.00 0.00 75 1017.0
20260507042713 0 0 0.0 0.0 0.00 0.00 0.00 77 1017.1
20260507042003 0 0 0.0 0.0 0.00 0.00 0.00 80 1017.0
20260507041714 0 0 0.0 0.0 0.00 0.00 0.00 81 1017.1
20260507041003 -1 0 0.0 0.0 0.00 0.00 0.00 83 1017.0
20260507040503 -1 0 0.0 0.0 0.00 0.00 0.00 83 1016.9
20260507040004 -1 0 0.0 0.0 0.00 0.00 0.00 84 1016.9
20260507035716 -2 0 0.0 0.0 0.00 0.00 0.00 80 1017.0
20260507035003 -2 0 0.0 0.0 0.00 0.00 0.00 80 1017.0
20260507034503 -2 0 0.0 0.0 0.00 0.00 0.00 80 1016.9
20260507034003 -3 0 0.0 0.0 0.00 0.00 0.00 81 1017.0
20260507033503 -3 0 0.0 0.0 0.00 0.00 0.00 81 1016.9
20260507033004 -3 0 0.0 0.0 0.00 0.00 0.00 81 1017.0
20260507032503 -3 0 0.0 0.0 0.00 0.00 0.00 81 1016.9
20260507032003 -3 0 0.0 0.0 0.00 0.00 0.00 81 1016.8
20260507031503 -4 0 0.0 0.0 0.00 0.00 0.00 82 1016.7
20260507031003 -4 0 0.0 0.0 0.00 0.00 0.00 82 1016.8
20260507030503 -4 0 0.0 0.0 0.00 0.00 0.00 82 1016.9
20260507030214 -5 0 0.0 0.0 0.00 0.00 0.00 82 1016.9
20260507025503 -5 0 0.0 0.0 0.00 0.00 0.00 81 1016.8
20260507025003 -5 0 0.0 0.0 0.00 0.00 0.00 81 1016.8
20260507024713 -5 0 0.0 0.0 0.00 0.00 0.00 81 1016.8
20260507024003 -5 0 0.0 0.0 0.00 0.00 0.00 81 1016.8
20260507023503 -5 0 0.0 0.0 0.00 0.00 0.00 81 1016.8
20260507023003 -5 0 0.0 0.0 0.00 0.00 0.00 81 1016.7
20260507022503 -5 0 0.0 0.0 0.00 0.00 0.00 81 1016.7
20260507022003 -5 0 0.0 0.0 0.00 0.00 0.00 81 1016.7
20260507021503 -5 0 0.0 0.0 0.00 0.00 0.00 81 1016.8
20260507021214 -5 0 0.0 0.0 0.00 0.00 0.00 81 1016.7
20260507020503 -5 0 0.0 0.0 0.00 0.00 0.00 80 1016.6
20260507020004 -5 0 0.0 0.0 0.00 0.00 0.00 80 1016.7
20260507015503 -5 0 0.0 0.0 0.00 0.00 0.00 80 1016.8
20260507015004 -5 0 0.0 0.0 0.00 0.00 0.00 80 1016.6
20260507014503 -4 0 0.0 0.0 0.00 0.00 0.00 80 1016.7
20260507014217 -4 0 0.0 0.0 0.00 0.00 0.00 80 1016.6
20260507013503 -4 0 0.0 0.0 0.00 0.00 0.00 79 1016.5
20260507013003 -4 0 0.0 0.0 0.00 0.00 0.00 79 1016.7
20260507012715 -4 0 0.0 0.0 0.00 0.00 0.00 79 1016.6
20260507012003 -4 0 0.0 0.0 0.00 0.00 0.00 78 1016.7
20260507011716 -4 0 0.0 0.0 0.00 0.00 0.00 78 1016.7
20260507011003 -4 0 0.0 0.0 0.00 0.00 0.00 78 1016.5
20260507010503 -4 0 0.0 0.0 0.00 0.00 0.00 78 1016.6
20260507010004 -4 0 0.0 0.0 0.00 0.00 0.00 78 1016.6
20260507005503 -4 0 0.0 0.0 0.00 0.00 0.00 77 1016.5
20260507005003 -4 0 0.0 0.0 0.00 0.00 0.00 76 1016.3
20260507004503 -4 0 0.0 0.0 0.00 0.00 0.00 75 1016.3
20260507004217 -4 0 0.0 0.0 0.00 0.00 0.00 75 1016.4
20260507003503 -4 0 0.0 0.0 0.00 0.00 0.00 75 1016.4
20260507003003 -4 0 0.0 0.0 0.00 0.00 0.00 75 1016.2
20260507002503 -4 0 0.0 0.0 0.00 0.00 0.00 75 1016.2
20260507002003 -4 0 0.0 0.0 0.00 0.00 0.00 75 1016.1
20260507001717 -3 0 0.0 0.0 0.00 0.00 0.00 75 1016.2
20260507001003 -3 0 0.0 0.0 0.00 0.00 0.00 75 1016.1
20260507000503 -3 0 0.0 0.0 0.00 0.00 0.00 74 1016.1
20260507000004 -3 0 0.0 0.0 0.00 0.00 0.00 74 1016.0
20260506235503 -3 0 0.0 0.0 0.00 0.00 0.00 73 1016.0
20260506235003 -3 0 0.0 0.0 0.00 0.00 0.00 73 1016.1
20260506234504 -3 0 0.0 0.0 0.00 0.00 0.00 73 1016.0
20260506234003 -3 0 0.0 0.0 0.00 0.00 0.00 73 1016.1
20260506233503 -3 0 0.0 0.0 0.00 0.00 0.00 74 1016.0
20260506233003 -3 0 0.0 0.0 0.00 0.00 0.00 73 1016.0
20260506232503 -3 0 0.0 0.0 0.00 0.00 0.00 73 1015.9
20260506232003 -3 0 0.0 0.0 0.00 0.00 0.00 72 1016.1
20260506231503 -3 0 0.0 0.0 0.00 0.00 0.00 72 1016.0
20260506231003 -3 0 0.0 0.0 0.00 0.00 0.00 72 1016.0
20260506230503 -3 0 0.0 0.0 0.00 0.00 0.00 73 1015.8
20260506230216 -3 0 0.0 0.0 0.00 0.00 0.00 73 1015.9
20260506225503 -3 0 0.0 0.0 0.00 0.00 0.00 72 1016.1
20260506225212 -3 0 0.0 0.0 0.00 0.00 0.00 72 1016.0
20260506224503 -3 0 0.0 0.0 0.00 0.00 0.00 71 1016.1
20260506224003 -3 0 0.0 0.0 0.00 0.00 0.00 72 1016.2
20260506223503 -3 0 0.0 0.0 0.00 0.00 0.00 72 1016.1
20260506223003 -3 0 0.0 0.0 0.00 0.00 0.00 72 1016.1
20260506222503 -3 0 0.0 0.0 0.00 0.00 0.00 71 1016.2
20260506222003 -3 0 0.0 0.0 0.00 0.00 0.00 70 1015.9
20260506221713 -3 0 0.0 0.0 0.00 0.00 0.00 70 1016.1
20260506221003 -2 0 0.0 0.0 0.00 0.00 0.00 69 1016.0
20260506220714 -2 0 0.0 0.0 0.00 0.00 0.00 69 1016.1
20260506220217 -2 0 0.0 0.0 0.00 0.00 0.00 69 1016.0
20260506215503 -2 0 0.0 0.0 0.00 0.00 0.00 69 1015.9
20260506215003 -2 0 0.0 0.0 0.00 0.00 0.00 69 1015.8
20260506214503 -2 0 0.0 0.0 0.00 0.00 0.00 69 1015.9
20260506214003 -2 0 0.0 0.0 0.00 0.00 0.00 68 1016.0
20260506213503 -2 0 0.0 0.0 0.00 0.00 0.00 68 1015.8
20260506213003 -2 0 0.0 0.0 0.00 0.00 0.00 67 1016.0
20260506212503 -2 0 0.0 0.0 0.00 0.00 0.00 65 1016.0
20260506212003 -2 0 0.0 0.0 0.00 0.00 0.00 64 1015.9
20260506211503 -2 0 0.0 0.0 0.00 0.00 0.00 69 1015.9
20260506211004 -1 0 0.0 0.0 0.00 0.00 0.00 69 1015.9
20260506210503 -1 0 0.0 0.0 0.00 0.00 0.00 70 1016.0
20260506210018 -1 0 0.0 0.0 0.00 0.00 0.00 69 1015.9
20260506205716 -1 0 0.0 0.0 0.00 0.00 0.00 69 1015.9
20260506205003 -1 0 0.0 0.0 0.00 0.00 0.00 68 1015.8
20260506204503 -1 0 0.0 0.0 0.00 0.00 0.00 67 1015.9
20260506204003 -1 0 0.0 0.0 0.00 0.00 0.00 66 1015.9
20260506203503 -1 0 0.0 0.0 0.00 0.00 0.00 66 1015.8
20260506203003 -1 0 0.0 0.0 0.00 0.00 0.00 65 1015.8
20260506202503 -1 0 0.0 0.0 0.00 0.00 0.00 65 1015.7
20260506202003 0 0 0.0 0.0 0.00 0.00 0.00 64 1015.9
20260506201503 0 0 0.0 0.0 0.00 0.00 0.00 64 1015.8
20260506201003 0 0 0.0 0.0 0.00 0.00 0.00 63 1015.9
20260506200504 0 0 0.0 0.0 0.00 0.00 0.00 62 1015.7
20260506200213 0 0 0.0 0.0 0.00 0.00 0.00 61 1015.9
20260506195503 0 0 0.0 0.0 0.00 0.00 0.00 60 1015.9
20260506195003 0 0 0.0 0.0 0.00 0.00 0.00 59 1016.0
20260506194503 0 0 0.0 0.0 0.00 0.00 0.00 57 1016.0
20260506194003 1 0 0.0 0.0 0.00 0.00 0.00 55 1015.9
20260506193503 1 0 0.0 0.0 0.00 0.00 0.00 54 1016.0
20260506193004 1 0 0.0 0.0 0.00 0.00 0.00 54 1016.0
20260506192503 1 0 0.0 0.0 0.00 0.00 0.00 55 1016.0
20260506192004 1 0 0.0 0.0 0.00 0.00 0.00 55 1016.0
20260506191503 2 0 0.0 0.0 0.00 0.00 0.00 54 1015.9
20260506191003 2 0 0.0 0.0 0.00 0.00 0.00 53 1015.9
20260506190503 2 0 0.0 0.0 0.00 0.00 0.00 52 1015.9
20260506190004 2 0 0.0 0.0 0.00 0.00 0.00 51 1015.8
20260506185717 2 0 0.0 0.0 0.00 0.00 0.00 51 1015.9
20260506185003 3 0 0.0 0.0 0.00 0.00 0.00 54 1015.7
20260506184503 3 0 0.0 0.0 0.00 0.00 0.00 53 1015.8
20260506184216 3 0 0.0 0.0 0.00 0.00 0.00 53 1015.7
20260506183503 4 0 0.0 0.0 0.00 0.00 0.00 51 1015.7
20260506183217 4 0 0.0 0.0 0.00 0.00 0.00 51 1015.5
20260506182503 4 0 0.0 0.0 0.00 0.00 0.00 50 1015.6
20260506182003 5 0 0.0 0.0 0.00 0.00 0.00 48 1015.6
20260506181503 5 0 0.0 0.0 0.00 0.00 0.00 45 1015.8
20260506181214 5 0 0.0 0.0 0.00 0.00 0.00 43 1015.7
20260506180503 5 0 0.0 0.0 0.00 0.00 0.00 43 1015.6
20260506180005 6 0 0.0 0.0 0.00 0.00 0.00 41 1015.6
20260506175503 6 0 0.0 0.0 0.00 0.00 0.00 40 1015.7
20260506175003 6 0 0.0 0.0 0.00 0.00 0.00 39 1015.7
20260506174503 7 0 0.0 0.0 0.00 0.00 0.00 37 1015.6
20260506174003 7 0 0.0 0.0 0.00 0.00 0.00 35 1015.6
20260506173503 7 0 0.0 0.0 0.00 0.00 0.00 33 1015.5
20260506173003 7 0 0.0 0.0 0.00 0.00 0.00 32 1015.6
20260506172715 7 0 0.0 0.0 0.00 0.00 0.00 32 1015.6
20260506172213 8 0 0.0 0.0 0.00 0.00 0.00 33 1015.6
20260506171716 8 0 0.0 0.0 0.00 0.00 0.00 32 1015.5
20260506171003 8 0 0.0 0.0 0.00 0.00 0.00 32 1015.6
20260506170503 8 315 0.0 3.2 0.00 0.00 0.00 32 1015.5
20260506170004 8 315 0.0 3.2 0.00 0.00 0.00 32 1015.5
20260506165503 8 225 0.0 3.2 0.00 0.00 0.00 31 1015.5
20260506165003 9 285 1.6 3.2 0.00 0.00 0.00 31 1015.7
20260506164504 9 323 1.6 3.2 0.00 0.00 0.00 29 1015.7
20260506164003 9 347 1.6 3.2 0.00 0.00 0.00 29 1015.6
20260506163503 10 323 1.6 3.2 0.00 0.00 0.00 29 1015.6
20260506163213 10 328 1.6 6.4 0.00 0.00 0.00 28 1015.6
20260506162503 10 330 1.6 6.4 0.00 0.00 0.00 27 1015.8
20260506162003 10 225 0.0 3.2 0.00 0.00 0.00 30 1015.7
20260506161504 9 241 0.0 3.2 0.00 0.00 0.00 31 1015.7
20260506161003 10 262 1.6 9.7 0.00 0.00 0.00 27 1015.6
20260506160503 10 294 3.2 9.7 0.00 0.00 0.00 26 1015.5
20260506160216 10 325 3.2 6.4 0.00 0.00 0.00 26 1015.5
20260506155503 10 311 3.2 4.8 0.00 0.00 0.00 25 1015.4
20260506155217 10 304 1.6 8.0 0.00 0.00 0.00 25 1015.5
20260506154503 10 296 3.2 8.0 0.00 0.00 0.00 25 1015.5
20260506154003 10 302 3.2 6.4 0.00 0.00 0.00 24 1015.6
20260506153503 10 299 3.2 9.7 0.00 0.00 0.00 24 1015.7
20260506153213 10 304 3.2 9.7 0.00 0.00 0.00 24 1015.5
20260506152503 11 329 1.6 4.8 0.00 0.00 0.00 22 1015.6
20260506152003 11 305 1.6 4.8 0.00 0.00 0.00 23 1015.4
20260506151717 11 302 3.2 9.7 0.00 0.00 0.00 23 1015.6
20260506151003 10 303 4.8 9.7 0.00 0.00 0.00 23 1015.7
20260506150504 10 294 3.2 6.4 0.00 0.00 0.00 23 1015.6
20260506150216 10 301 3.2 4.8 0.00 0.00 0.00 23 1015.6
20260506145503 11 322 4.8 6.4 0.00 0.00 0.00 22 1015.6
20260506145003 11 335 3.2 6.4 0.00 0.00 0.00 22 1015.6
20260506144716 11 349 3.2 6.4 0.00 0.00 0.00 22 1015.6
20260506144003 11 344 3.2 4.8 0.00 0.00 0.00 22 1015.6
20260506143503 11 329 3.2 6.4 0.00 0.00 0.00 22 1015.6
20260506143003 12 325 3.2 6.4 0.00 0.00 0.00 22 1015.5
20260506142503 11 341 4.8 6.4 0.00 0.00 0.00 23 1015.6
20260506142003 11 331 4.8 8.0 0.00 0.00 0.00 23 1015.7
20260506141503 11 311 3.2 8.0 0.00 0.00 0.00 23 1015.7
20260506141003 11 308 3.2 8.0 0.00 0.00 0.00 24 1015.7
20260506140503 11 343 3.2 11.3 0.00 0.00 0.00 24 1015.7
20260506140004 11 345 4.8 11.3 0.00 0.00 0.00 23 1015.6
20260506135503 12 326 6.4 11.3 0.00 0.00 0.00 21 1015.4
20260506135003 12 322 4.8 8.0 0.00 0.00 0.00 22 1015.6
20260506134504 12 321 4.8 6.4 0.00 0.00 0.00 22 1015.6
20260506134003 13 323 3.2 6.4 0.00 0.00 0.00 25 1015.4
20260506133504 12 335 3.2 6.4 0.00 0.00 0.00 23 1015.6
20260506133003 12 333 4.8 6.4 0.00 0.00 0.00 22 1015.4
20260506132503 12 307 4.8 6.4 0.00 0.00 0.00 22 1015.6
20260506132003 13 254 3.2 4.8 0.00 0.00 0.00 24 1015.6
20260506131503 13 287 3.2 6.4 0.00 0.00 0.00 25 1015.6
20260506131004 12 301 3.2 6.4 0.00 0.00 0.00 25 1015.7
20260506130503 13 318 6.4 12.9 0.00 0.00 0.00 25 1015.5
20260506130004 12 318 6.4 12.9 0.00 0.00 0.00 24 1015.6
20260506125503 13 323 4.8 8.0 0.00 0.00 0.00 24 1015.4
20260506125004 13 23 4.8 6.4 0.00 0.00 0.00 25 1015.6
20260506124717 13 338 6.4 12.9 0.00 0.00 0.00 25 1015.5
20260506124003 13 313 4.8 12.9 0.00 0.00 0.00 25 1015.4
20260506123718 13 330 3.2 9.7 0.00 0.00 0.00 25 1015.4
20260506123003 13 335 4.8 9.7 0.00 0.00 0.00 25 1015.4
20260506122503 13 328 3.2 6.4 0.00 0.00 0.00 27 1015.5
20260506122003 13 6 4.8 6.4 0.00 0.00 0.00 27 1015.6
20260506121503 13 348 4.8 8.0 0.00 0.00 0.00 28 1015.6
20260506121003 12 319 4.8 8.0 0.00 0.00 0.00 26 1015.6
20260506120503 12 323 4.8 6.4 0.00 0.00 0.00 26 1015.6
20260506120213 12 9 4.8 9.7 0.00 0.00 0.00 28 1015.5
20260506115503 12 352 4.8 9.7 0.00 0.00 0.00 26 1015.6
20260506115003 12 314 3.2 8.0 0.00 0.00 0.00 27 1015.6
20260506114503 12 320 3.2 8.0 0.00 0.00 0.00 27 1015.4